User: anonymous   Login
Location: ??????
(56.0120°N, 39.1740°E)
Time: 00:25:03
(UTC+00:00)
Language:

Cosmos 371 Rocket - Orbit

View from above orbital plane
View from above orbital plane
View from above satellite
View from above satellite

Ground track
Ground track

The orbit is defined by the following mean orbital elements,

1 04579U          26159.48783191 +.00000000 +00000-0 +10545-3 0 00000
2 04579  74.0024 291.4686 0010578 219.9097 140.1294 14.63691707    03
Epoch (UTC): 08 June 2026 11:42:28
Eccentricity: 0.0010578
inclination: 74.0024°
perigee height: 674 km
apogee height: 689 km
right ascension of ascending node: 291.4686°
argument of perigee: 219.9097°
revolutions per day: 14.63691707
mean anomaly at epoch: 140.1294°

The dashed part of the orbit path shows where the satellite is in the earth's shadow,  

DLR